Danbury, CT

1:40 AM EDT on August 26, 2016 (GMT -0400)
Danbury Municipal

Weather History for KDXR - December, 1999

Change the Weather History Date:

Sunday, December 19, 1999

  Actual Average Record
Temperature  
Mean Temperature 30 °F -  
Max Temperature 36 °F 35 °F 53 °F (1967)
Min Temperature 23 °F 18 °F 5 °F (1991)
Degree Days  
Heating Degree Days 36    
Moisture  
Dew Point 14 °F    
Average Humidity 55    
Maximum Humidity 78    
Minimum Humidity 39    
Precipitation  
Precipitation 0.00 in - - ()
Sea Level Pressure  
Sea Level Pressure 30.46 in    
Wind  
Wind Speed 4 mph (NE)    
Max Wind Speed 8 mph    
Max Gust Speed -    
Visibility 10 miles    
Events      
Averages and records for this station are not official NWS values.
T = Trace of Precipitation, MM = Missing Value Source: NWS Daily Summary

Daily Weather History Graph

Daily Weather History Graph

Search for Another Location

Airport or City:

Trip Planner

Search our weather history database for the weather conditions in past years. The results will help you decide how hot, cold, wet, or windy it might be!

Date:

Astronomy

Dec. 19, 1999 Rise Set
Actual Time 7:15 AM EST 4:26 PM EST
Civil Twilight 6:43 AM EST 4:57 PM EST
Nautical Twilight 6:09 AM EST 5:32 PM EST
Astronomical Twilight 5:35 AM EST 6:06 PM EST
Moon 2:20 PM EST (12/19) 3:12 AM EST (12/19)
Length of Visible Light 10h 14m
Length of Day
9h 11m
Waxing Gibbous, 87% of the Moon is Illuminated
Dec 19
Waxing Gibbous
Dec 22
Full
Dec 29
Last Quarter
Jan 6
New
Jan 14
First Quarter

Hourly Weather History & Observations

Time (EST) Temp. Windchill Dew Point Humidity Pressure Visibility Wind Dir Wind Speed Gust Speed Precip Events Conditions
12:53 AM 28.9 °F 23.9 °F 12.0 °F 49% 30.43 in 10.0 mi NE 4.6 mph - N/A   Overcast
1:53 AM 28.9 °F 23.9 °F 10.9 °F 47% 30.43 in 10.0 mi NNE 4.6 mph - N/A   Overcast
2:53 AM 28.0 °F 22.8 °F 12.0 °F 51% 30.44 in 10.0 mi NE 4.6 mph - N/A   Clear
3:53 AM 27.0 °F 21.6 °F 12.0 °F 53% 30.45 in 10.0 mi NNE 4.6 mph - N/A   Clear
4:53 AM 27.0 °F - 12.0 °F 53% 30.45 in 10.0 mi Calm Calm - N/A   Scattered Clouds
5:53 AM 26.1 °F 19.4 °F 12.9 °F 58% 30.46 in 10.0 mi NE 5.8 mph - N/A   Clear
6:53 AM 26.1 °F 20.5 °F 12.0 °F 55% 30.47 in 10.0 mi NNE 4.6 mph - N/A   Clear
7:53 AM 26.1 °F 21.9 °F 12.0 °F 55% 30.48 in 10.0 mi ENE 3.5 mph - N/A   Clear
8:53 AM 27.0 °F 21.6 °F 12.9 °F 56% 30.48 in 10.0 mi ENE 4.6 mph - N/A   Clear
9:53 AM 28.0 °F 20.8 °F 14.0 °F 56% 30.50 in 10.0 mi ENE 6.9 mph - N/A   Clear
10:53 AM 30.9 °F 23.5 °F 14.0 °F 50% 30.50 in 10.0 mi NE 8.1 mph - N/A   Clear
11:53 AM 33.1 °F 26.9 °F 14.0 °F 46% 30.47 in 10.0 mi NNE 6.9 mph - N/A   Clear
12:53 PM 34.0 °F 29.8 °F 14.0 °F 44% 30.45 in 10.0 mi North 4.6 mph - N/A   Clear
1:53 PM 35.1 °F 32.2 °F 14.0 °F 42% 30.43 in 10.0 mi Variable 3.5 mph - N/A   Clear
2:53 PM 36.0 °F 30.3 °F 12.9 °F 39% 30.43 in 10.0 mi NE 6.9 mph - N/A   Clear
3:53 PM 34.0 °F 28.0 °F 12.9 °F 42% 30.44 in 10.0 mi East 6.9 mph - N/A   Clear
4:53 PM 32.0 °F 27.5 °F 12.9 °F 45% 30.45 in 10.0 mi East 4.6 mph - N/A   Clear
5:53 PM 28.9 °F 25.2 °F 15.1 °F 56% 30.47 in 10.0 mi East 3.5 mph - N/A   Clear
6:53 PM 27.0 °F 23.0 °F 17.1 °F 66% 30.48 in 10.0 mi East 3.5 mph - N/A   Clear
7:53 PM 27.0 °F 23.0 °F 16.0 °F 63% 30.48 in 10.0 mi NE 3.5 mph - N/A   Clear
8:53 PM 25.0 °F - 17.1 °F 72% 30.49 in 10.0 mi Calm Calm - N/A   Clear
9:53 PM 23.0 °F - 17.1 °F 78% 30.49 in 10.0 mi Calm Calm - N/A   Clear
10:53 PM 25.0 °F - 15.1 °F 66% 30.49 in 10.0 mi Calm Calm - N/A   Clear
11:23 PM 26.6 °F 21.2 °F 15.8 °F 64% 30.46 in 10.0 mi East 4.6 mph - N/A   Mostly Cloudy
11:53 PM 27.0 °F 23.0 °F 15.1 °F 61% 30.47 in 10.0 mi ENE 3.5 mph - N/A   Overcast